User: anonymous
Location: Whispering Pines Observatory
(39.4020°N, 104.7430°W)
Time: 19:38:55
(UTC-06:00)
Language:

MOS 1 Rocket - Orbit

View from above orbital plane
View from above orbital plane
View from above satellite
View from above satellite

Ground track
Ground track

The orbit data is extracted from the following two-line orbital elements,

1 17528U 87018B   14259.29099279  .00000648  00000-0  15330-3 0  4667
2 17528 097.4560 318.2884 0153644 207.0413 195.2300 14.50043199454201
Epoch (UTC): 16 September 2014 06:59:01
Eccentricity: 0.0153644
inclination: 97.4560°
perigee height: 616 km
apogee height: 834 km
right ascension of ascending node: 318.2884°
argument of perigee: 207.0413°
revolutions per day: 14.50043199
mean anomaly at epoch: 195.2300°
orbit number at epoch: 45420

The dashed part of the orbit path shows where the satellite is in the earth's shadow,  

DLR